Date String (YYYY-MM-DD hh:mm:ss) UTC,Instrument flags,absolute air pressure of the measurement (hPa),sample flow rate (lpm),inlet stack bypass flow (lpm),air temperature of the measurement (°C),ambient temperature measured by the external sensor (°C),aerosol sample conditioner tube jacket temperature (°C),OPC LED temperature (°C),internal box temperature (°C),relative humidity of the measurement (%),span deviation,mass concentration of particles derived from Lorenz-Mie calculation of OPC scattering (μg/m³),mass concentration of particles derived from Lorenz-Mie calculation of OPC scattering (μg/m³),mass concentration of particles derived from Lorenz-Mie calculation of OPC scattering (μg/m³)
DateTimeUTC,F1_M11,P_M11,Q1_M11,Q2_M11,T1_M11,T2_M11,T3_M11,T4_M11,T5_M11,U1_M11,ZSPAN_M11,X2_M11,X0_M11,X1_M11
2023-10-11 20:00:00,SystemResetWarning,0813.5,5.00,000.00,028.4,025.3,000.0,037.0,030.0,15.9,0000.0,0005.23,0018.02,0003.70
2023-10-11 20:01:00,SystemResetWarning,0813.5,5.00,000.00,028.4,025.6,000.0,037.0,030.0,15.9,0000.0,0005.31,0018.74,0003.71
2023-10-11 20:02:00,SystemResetWarning,0813.4,4.99,000.00,028.4,026.0,000.0,037.0,030.1,16.4,0000.0,0005.37,0019.43,0003.70
2023-10-11 20:03:00,SystemResetWarning,0813.4,5.00,000.00,028.4,026.2,000.0,037.0,030.1,16.6,0000.0,0005.27,0019.89,0003.67
2023-10-11 20:04:00,SystemResetWarning,0813.3,5.01,000.00,028.4,026.4,000.0,037.0,030.2,17.2,0000.0,0005.24,0019.51,0003.65
2023-10-11 20:05:00,SystemResetWarning,0813.3,5.00,000.00,028.4,026.6,000.0,037.0,030.2,17.5,0000.0,0005.13,0019.05,0003.61
2023-10-11 20:06:00,SystemResetWarning,0813.3,4.99,000.00,028.4,026.8,000.0,037.0,030.2,17.4,0000.0,0005.06,0018.97,0003.58
2023-10-11 20:07:00,SystemResetWarning,0813.2,5.00,000.00,028.5,026.9,000.0,037.0,030.3,17.2,0000.0,0004.99,0018.35,0003.54
2023-10-11 20:08:00,SystemResetWarning,0813.2,4.99,000.00,028.5,027.0,000.0,037.0,030.3,17.5,0000.0,0004.92,0017.13,0003.51
2023-10-11 20:09:00,SystemResetWarning,0813.2,5.01,000.00,028.5,027.1,000.0,037.0,030.3,17.3,0000.0,0004.82,0016.04,0003.48
2023-10-11 20:10:00,SystemResetWarning,0813.2,5.01,000.00,028.5,027.2,000.0,037.0,030.4,17.4,0000.0,0004.75,0015.87,0003.46
2023-10-11 20:11:00,SystemResetWarning,0813.2,5.00,000.00,028.6,027.3,000.0,037.0,030.4,16.7,0000.0,0004.67,0017.02,0003.42
2023-10-11 20:12:00,SystemResetWarning,0813.2,4.99,000.00,028.6,027.4,000.0,037.1,030.4,16.2,0000.0,0004.40,0016.36,0003.33
2023-10-11 20:13:00,SystemResetWarning,0813.2,5.00,000.00,028.6,027.4,000.0,037.1,030.5,16.7,0000.0,0004.11,0014.62,0003.23
2023-10-11 20:14:00,SystemResetWarning,0813.2,5.00,000.00,028.7,027.5,000.0,037.1,030.5,17.0,0000.0,0004.04,0013.99,0003.16
2023-10-11 20:15:00,SystemResetWarning,0813.2,5.00,000.00,028.7,027.4,000.0,037.1,030.5,17.0,0000.0,0003.92,0013.56,0003.07
2023-10-11 20:16:00,SystemResetWarning,0813.2,4.98,000.00,028.7,026.1,000.0,037.1,030.4,16.9,0000.0,0003.83,0013.03,0002.96
2023-10-11 20:17:00,SystemResetWarning,0813.2,5.01,000.00,028.6,024.3,000.0,037.0,030.1,17.0,0000.0,0003.73,0012.20,0002.85
2023-10-11 20:18:00,SystemResetWarning,0813.1,5.01,000.00,028.5,024.0,000.0,036.9,030.0,16.8,0000.0,0003.62,0011.15,0002.73
2023-10-11 20:19:00,SystemResetWarning,0813.0,5.00,000.00,028.4,024.3,000.0,036.9,029.8,16.5,0000.0,0003.52,0011.06,0002.62
2023-10-11 20:20:00,SystemResetWarning,0813.0,5.01,000.00,028.3,024.7,000.0,036.9,029.8,16.8,0000.0,0003.46,0011.34,0002.51
2023-10-11 20:21:00,SystemResetWarning,0813.1,5.00,000.00,028.3,025.1,000.0,036.9,029.8,17.1,0000.0,0003.34,0011.10,0002.40
2023-10-11 20:22:00,SystemResetWarning,0813.1,5.00,000.00,028.2,025.5,000.0,036.9,029.9,17.2,0000.0,0003.26,0009.86,0002.35
2023-10-11 20:23:00,SystemResetWarning,0813.1,4.99,000.00,028.2,025.8,000.0,036.9,029.9,17.1,0000.0,0003.27,0009.09,0002.35
2023-10-11 20:24:00,SystemResetWarning,0813.1,4.99,000.00,028.3,026.1,000.0,036.9,030.0,16.8,0000.0,0003.34,0009.46,0002.38
2023-10-11 20:25:00,SystemResetWarning,0813.1,5.00,000.00,028.3,026.4,000.0,036.9,030.0,16.9,0000.0,0003.33,0009.01,0002.38
2023-10-11 20:26:00,SystemResetWarning,0813.1,5.02,000.00,028.3,026.6,000.0,036.9,030.1,16.6,0000.0,0003.29,0008.63,0002.37
2023-10-11 20:27:00,SystemResetWarning,0813.0,5.01,000.00,028.3,026.7,000.0,036.9,030.1,16.4,0000.0,0003.29,0009.00,0002.37
2023-10-11 20:28:00,SystemResetWarning,0813.0,5.00,000.00,028.3,026.9,000.0,036.9,030.2,16.5,0000.0,0003.28,0008.99,0002.35
2023-10-11 20:29:00,SystemResetWarning,0813.0,5.00,000.00,028.4,027.0,000.0,036.9,030.2,16.3,0000.0,0003.27,0008.74,0002.34
2023-10-11 20:30:00,SystemResetWarning,0813.0,5.00,000.00,028.4,027.1,000.0,036.9,030.3,16.3,0000.0,0003.23,0008.11,0002.33
2023-10-11 20:31:00,SystemResetWarning,0813.0,5.00,000.00,028.4,027.2,000.0,036.9,030.3,16.3,0000.0,0003.22,0008.08,0002.34
2023-10-11 20:32:00,SystemResetWarning,0813.0,5.00,000.00,028.5,027.3,000.0,036.9,030.3,16.2,0000.0,0003.22,0008.19,0002.33
2023-10-11 20:33:00,SystemResetWarning,0813.0,5.00,000.00,028.5,027.3,000.0,036.9,030.3,16.1,0000.0,0003.19,0008.42,0002.31
2023-10-11 20:34:00,SystemResetWarning,0813.0,5.00,000.00,028.5,027.4,000.0,037.0,030.4,16.1,0000.0,0003.19,0008.81,0002.29
2023-10-11 20:35:00,SystemResetWarning,0813.0,5.00,000.00,028.6,027.5,000.0,037.0,030.4,16.2,0000.0,0003.17,0008.74,0002.29
2023-10-11 20:36:00,SystemResetWarning,0813.0,5.00,000.00,028.6,027.5,000.0,037.0,030.5,16.3,0000.0,0003.15,0008.46,0002.29
2023-10-11 20:37:00,SystemResetWarning,0813.0,5.00,000.00,028.6,027.6,000.0,037.0,030.5,16.3,0000.0,0003.16,0008.35,0002.30
2023-10-11 20:38:00,SystemResetWarning,0813.0,4.99,000.00,028.7,026.9,000.0,037.0,030.5,16.3,0000.0,0003.15,0008.05,0002.29
2023-10-11 20:39:00,SystemResetWarning,0812.8,5.00,000.00,028.6,025.3,000.0,037.0,030.3,16.2,0000.0,0003.13,0008.11,0002.29
2023-10-11 20:40:00,SystemResetWarning,0812.8,5.01,000.00,028.6,025.0,000.0,036.9,030.2,16.0,0000.0,0003.14,0008.11,0002.30
2023-10-11 20:41:00,SystemResetWarning,0812.7,5.00,000.00,028.5,025.2,000.0,036.9,030.0,16.1,0000.0,0003.13,0008.13,0002.30
2023-10-11 20:42:00,SystemResetWarning,0812.7,4.98,000.00,028.4,025.5,000.0,036.9,030.0,16.2,0000.0,0003.11,0007.52,0002.29
2023-10-11 20:43:00,SystemResetWarning,0812.7,5.00,000.00,028.4,025.8,000.0,036.9,030.0,16.2,0000.0,0003.12,0007.69,0002.29
2023-10-11 20:44:00,SystemResetWarning,0812.6,5.01,000.00,028.4,026.1,000.0,036.9,030.1,16.1,0000.0,0003.11,0007.40,0002.29
2023-10-11 20:45:00,SystemResetWarning,0812.6,5.01,000.00,028.4,026.4,000.0,036.9,030.1,16.3,0000.0,0003.04,0006.53,0002.27
2023-10-11 20:46:00,SystemResetWarning,0812.6,4.99,000.00,028.4,026.6,000.0,037.0,030.2,15.9,0000.0,0002.99,0006.10,0002.25
2023-10-11 20:47:00,SystemResetWarning,0812.6,4.99,000.00,028.5,026.8,000.0,037.0,030.2,15.7,0000.0,0002.94,0006.19,0002.25
2023-10-11 20:48:00,SystemResetWarning,0812.6,4.99,000.00,028.5,027.0,000.0,037.0,030.2,15.8,0000.0,0002.91,0006.36,0002.25
2023-10-11 20:49:00,SystemResetWarning,0812.6,5.00,000.00,028.5,027.2,000.0,037.0,030.3,15.7,0000.0,0002.92,0006.58,0002.24
2023-10-11 20:50:00,SystemResetWarning,0812.6,5.00,000.00,028.6,027.3,000.0,037.0,030.4,15.8,0000.0,0002.91,0006.53,0002.22
2023-10-11 20:51:00,SystemResetWarning,0812.6,5.00,000.00,028.6,027.4,000.0,037.0,030.4,15.8,0000.0,0002.91,0006.49,0002.21
2023-10-11 20:52:00,SystemResetWarning,0812.6,5.01,000.00,028.6,027.5,000.0,037.0,030.4,15.8,0000.0,0002.90,0006.42,0002.20
2023-10-11 20:53:00,SystemResetWarning,0812.6,5.01,000.00,028.7,027.5,000.0,037.1,030.5,16.0,0000.0,0002.90,0006.51,0002.19
2023-10-11 20:54:00,SystemResetWarning,0812.6,4.99,000.00,028.7,026.8,000.0,037.1,030.5,16.1,0000.0,0002.87,0006.17,0002.19
2023-10-11 20:55:00,SystemResetWarning,0812.5,5.00,000.00,028.6,025.2,000.0,037.0,030.3,16.3,0000.0,0002.89,0005.58,0002.17
2023-10-11 20:56:00,SystemResetWarning,0812.5,5.02,000.00,028.6,025.0,000.0,036.9,030.2,16.4,0000.0,0002.94,0005.78,0002.18
2023-10-11 20:57:00,SystemResetWarning,0812.4,5.00,000.00,028.5,025.2,000.0,036.9,030.0,16.4,0000.0,0002.95,0005.85,0002.18
2023-10-11 20:58:00,SystemResetWarning,0812.5,5.00,000.00,028.4,025.5,000.0,037.0,030.0,16.4,0000.0,0002.99,0005.98,0002.18
2023-10-11 20:59:00,SystemResetWarning,0812.5,5.01,000.00,028.4,025.8,000.0,037.0,030.1,16.3,0000.0,0002.99,0005.39,0002.18
